Погода в Эконде

Россия / Красноярский край     65°45′15″N   105°19′41″E
темп.,
°C
ветер,
м/с
пор.,
м/с
влажн.,
%
обл.,
%
осадки,
мм/ч
давл.,
гПа
погр.,
м
31 июля, сб
сб3101:00+16юв334495 0.0 101515
04:00+15юв334829 0.0 101515
07:00+20юв48385 0.0 1015520
10:00+23ююв88292 0.0 10151327
13:00+25ю89260 0.0 10141765
16:00+25ю78295 0.0 10131883
19:00+23ю473916 0.0 1014172
22:00+19ююв444491 0.0 101423
1 августа, вс
вс101:00+17юв3347100 0.0 101516
04:00+16юв2253100 0.0 101514
07:00+20юв1243100 0.0 1016218
10:00+24ююв343363 0.0 10151008
13:00+26ююв4527100 0.0 10142248
16:00+27ю442774 0.0 10132336
19:00+24ю2340100 0.0 101426
22:00+18ююз11500 0.0 101411
2 августа, пн
пн201:00+17всв11560 0.0 101411
04:00+17св225682 0.0 101411
07:00+22всв234397 0.0 1014206
10:00+25в3434100 0.0 10131079
13:00+27всв3429100 0.0 10121974
16:00+28всв4528100 0.0 10122176
19:00+25всв4640100 0.0 101290
22:00+21св5547100 0.0 101254
3 августа, вт
вт301:00+19св4548100 0.0 101255
04:00+18св4752100 0.0 101290
07:00+22всв51046100 0.0 1012389
10:00+27всв91135100 0.0 10111725
13:00+28всв9103099 0.0 10102321
16:00+28всв10113029 0.0 10092434
19:00+26всв914376 0.0 1009489
22:00+21всв1018495 0.0 1010472
4 августа, ср
ср401:00+19всв1017575 0.0 1010381
04:00+17всв814625 0.0 1011317
07:00+20всв913515 0.0 1011630
10:00+24всв11123721 0.0 10101286
13:00+26всв1011355 0.0 10091804
16:00+26всв10113393 0.0 10092056
19:00+23всв9133787 0.0 1009547
22:00+19св81641100 0.0 1010339